{"data":{"norad_id":40076,"intl_designator":"2014-037H","name":"TECHDEMOSAT-1 (TDS-1)","alt_names":[],"object_type":"PAYLOAD","status":"ACTIVE","operator":null,"country":"UK","launch_date":"2014-07-08","launch_site_code":"TYMSC","launch_vehicle":null,"mission":null,"orbit_class":"UNKNOWN","rcs_meters":0.5187,"size_class":null,"mass_kg":null,"dimensions":null,"purposes":["tech_demo"],"wikipedia_slug":null,"has_3d_model":false,"image_url":null,"decayed_at":null,"tle_current":{"epoch":"2026-05-24T22:43:20.081280Z","epoch_age_seconds":75704,"freshness":"FRESH","line1":"1 40076U 14037H   26144.94676020  .00007332  00000+0  42091-3 0  9996","line2":"2 40076  98.3814 134.8649 0006094   4.9095 355.2192 15.12872787644710","mean_motion":15.12872787,"eccentricity":0.0006094,"inclination_deg":98.3814,"raan_deg":134.8649,"arg_perigee_deg":4.9095,"mean_anomaly_deg":355.2192,"bstar":0.00042091,"rev_number":64471,"period_min":95.183151708049,"perigee_km":523.23590142494,"apogee_km":531.6524237459,"semimajor_km":6905.5811625854,"source":"CELESTRAK","updated_at":"2026-05-25T13:38:24.897178Z"}}}